| time (UTC) | temp C | wind direction | speed KPH | gust KPH | rain 1hr cm | rain 24hr cm | rain mn cm | humidity % | barometer mb |
| 20260504150322 | 18 | 267 | 1.6 | 3.2 | 0.00 | 0.00 | 0.00 | 55 | 1009.3 |
| 20260504141252 | 17 | 241 | 1.6 | 1.6 | 0.00 | 0.00 | 0.00 | 53 | 1009.2 |
| 20260504140749 | 16 | 249 | 0.0 | 0.0 | 0.00 | 0.00 | 0.00 | 53 | 1009.4 |
| 20260504140244 | 17 | 254 | 6.4 | 8.0 | 0.00 | 0.00 | 0.00 | 54 | 1009.3 |
| 20260504130713 | 15 | 255 | 1.6 | 3.2 | 0.00 | 0.00 | 0.00 | 59 | 1009.9 |
| 20260504130209 | 14 | 213 | 4.8 | 8.0 | 0.00 | 0.00 | 0.00 | 60 | 1009.8 |
| 20260504120133 | 12 | 216 | 6.4 | 9.7 | 0.00 | 0.00 | 0.00 | 62 | 1009.7 |
| 20260504110600 | 8 | 253 | 0.0 | 0.0 | 0.00 | 0.00 | 0.00 | 79 | 1009.7 |
| 20260504100522 | 6 | 250 | 0.0 | 0.0 | 0.00 | 0.00 | 0.00 | 94 | 1010.0 |
| 20260504081915 | 5 | 251 | 0.0 | 0.0 | 0.00 | 0.00 | 0.00 | 96 | 1010.5 |
| 20260504081412 | 5 | 254 | 0.0 | 0.0 | 0.00 | 0.00 | 0.00 | 96 | 1010.9 |
| 20260504080908 | 5 | 252 | 0.0 | 0.0 | 0.00 | 0.00 | 0.00 | 96 | 1010.8 |
| 20260504080405 | 5 | 252 | 0.0 | 0.0 | 0.00 | 0.00 | 0.00 | 96 | 1011.0 |
| 20260504070333 | 5 | 253 | 0.0 | 0.0 | 0.00 | 0.00 | 0.00 | 96 | 1011.6 |
| 20260504050721 | 5 | 259 | 0.0 | 0.0 | 0.00 | 0.00 | 0.00 | 96 | 1012.5 |
| 20260504050218 | 5 | 259 | 0.0 | 0.0 | 0.00 | 0.00 | 0.00 | 96 | 1012.3 |
| 20260504045715 | 5 | 254 | 0.0 | 0.0 | 0.00 | 0.00 | 0.00 | 96 | 1012.5 |
| 20260504045215 | 5 | 253 | 0.0 | 0.0 | 0.00 | 0.00 | 0.00 | 96 | 1012.5 |
| 20260504044713 | 4 | 257 | 0.0 | 0.0 | 0.00 | 0.00 | 0.00 | 97 | 1012.5 |
| 20260504044210 | 4 | 257 | 0.0 | 0.0 | 0.00 | 0.00 | 0.00 | 97 | 1012.3 |
| 20260504043707 | 4 | 255 | 0.0 | 0.0 | 0.00 | 0.00 | 0.00 | 96 | 1012.3 |
| 20260504043204 | 4 | 254 | 0.0 | 0.0 | 0.00 | 0.00 | 0.00 | 96 | 1012.5 |
| 20260504042702 | 4 | 255 | 0.0 | 0.0 | 0.00 | 0.00 | 0.00 | 96 | 1012.7 |
| 20260504042158 | 4 | 255 | 0.0 | 0.0 | 0.00 | 0.00 | 0.00 | 95 | 1012.5 |
| 20260504041654 | 4 | 254 | 0.0 | 0.0 | 0.00 | 0.00 | 0.00 | 95 | 1012.6 |
| 20260504041150 | 4 | 254 | 0.0 | 0.0 | 0.00 | 0.00 | 0.00 | 95 | 1012.6 |
| 20260504040647 | 4 | 255 | 0.0 | 0.0 | 0.00 | 0.00 | 0.00 | 94 | 1012.9 |
| 20260504040144 | 4 | 260 | 0.0 | 0.0 | 0.00 | 0.00 | 0.00 | 94 | 1012.7 |
| 20260504035641 | 4 | 252 | 0.0 | 0.0 | 0.00 | 0.00 | 0.00 | 94 | 1012.7 |
| 20260504035137 | 4 | 248 | 0.0 | 0.0 | 0.00 | 0.00 | 0.00 | 94 | 1013.0 |
| 20260504034635 | 5 | 254 | 0.0 | 0.0 | 0.00 | 0.00 | 0.00 | 94 | 1012.7 |
| 20260504034132 | 5 | 254 | 0.0 | 0.0 | 0.00 | 0.00 | 0.00 | 93 | 1012.7 |
| 20260504033630 | 5 | 254 | 0.0 | 0.0 | 0.00 | 0.00 | 0.00 | 93 | 1012.6 |
| 20260504033127 | 5 | 254 | 0.0 | 0.0 | 0.00 | 0.00 | 0.00 | 92 | 1012.3 |
| 20260504032624 | 5 | 254 | 0.0 | 0.0 | 0.00 | 0.00 | 0.00 | 92 | 1012.7 |
| 20260504032120 | 5 | 254 | 0.0 | 0.0 | 0.00 | 0.00 | 0.00 | 92 | 1012.5 |
| 20260504031618 | 5 | 254 | 0.0 | 0.0 | 0.00 | 0.00 | 0.00 | 91 | 1012.5 |
| 20260504031114 | 5 | 250 | 0.0 | 0.0 | 0.00 | 0.00 | 0.00 | 90 | 1012.4 |
| 20260504030611 | 5 | 250 | 0.0 | 0.0 | 0.00 | 0.00 | 0.00 | 90 | 1012.6 |
| 20260504030108 | 5 | 250 | 0.0 | 0.0 | 0.00 | 0.00 | 0.00 | 89 | 1012.5 |
| 20260504025604 | 5 | 250 | 0.0 | 0.0 | 0.00 | 0.00 | 0.00 | 87 | 1012.4 |
| 20260504025101 | 6 | 250 | 0.0 | 0.0 | 0.00 | 0.00 | 0.00 | 87 | 1012.7 |
| 20260504024558 | 6 | 250 | 0.0 | 0.0 | 0.00 | 0.00 | 0.00 | 87 | 1012.5 |
| 20260504024055 | 6 | 250 | 0.0 | 0.0 | 0.00 | 0.00 | 0.00 | 86 | 1012.7 |
| 20260504023551 | 6 | 250 | 0.0 | 0.0 | 0.00 | 0.00 | 0.00 | 85 | 1012.5 |
| 20260504023048 | 6 | 250 | 0.0 | 0.0 | 0.00 | 0.00 | 0.00 | 84 | 1012.5 |
| 20260504022543 | 6 | 250 | 0.0 | 0.0 | 0.00 | 0.00 | 0.00 | 83 | 1012.6 |
| 20260504022040 | 6 | 250 | 0.0 | 0.0 | 0.00 | 0.00 | 0.00 | 82 | 1012.9 |
| 20260504021538 | 7 | 250 | 0.0 | 0.0 | 0.00 | 0.00 | 0.00 | 79 | 1012.5 |
| 20260504021034 | 7 | 250 | 0.0 | 0.0 | 0.00 | 0.00 | 0.00 | 76 | 1012.5 |
| 20260504020531 | 7 | 250 | 0.0 | 0.0 | 0.00 | 0.00 | 0.00 | 73 | 1012.5 |
| 20260504020028 | 7 | 250 | 0.0 | 0.0 | 0.00 | 0.00 | 0.00 | 71 | 1012.7 |
| 20260504015524 | 8 | 250 | 0.0 | 0.0 | 0.00 | 0.00 | 0.00 | 69 | 1012.7 |
| 20260504015020 | 8 | 250 | 0.0 | 0.0 | 0.00 | 0.00 | 0.00 | 68 | 1012.6 |
| 20260504014516 | 8 | 250 | 0.0 | 0.0 | 0.00 | 0.00 | 0.00 | 67 | 1012.5 |
| 20260504014014 | 9 | 250 | 0.0 | 0.0 | 0.00 | 0.00 | 0.00 | 65 | 1012.6 |
| 20260504013512 | 9 | 250 | 0.0 | 0.0 | 0.00 | 0.00 | 0.00 | 64 | 1012.5 |
| 20260504013009 | 10 | 250 | 0.0 | 0.0 | 0.00 | 0.00 | 0.00 | 63 | 1012.5 |
| 20260504012506 | 10 | 250 | 0.0 | 0.0 | 0.00 | 0.00 | 0.00 | 62 | 1012.7 |
| 20260504012004 | 10 | 250 | 0.0 | 0.0 | 0.00 | 0.00 | 0.00 | 61 | 1012.4 |
| 20260504011500 | 10 | 250 | 0.0 | 0.0 | 0.00 | 0.00 | 0.00 | 60 | 1012.5 |
| 20260504010955 | 10 | 249 | 0.0 | 0.0 | 0.00 | 0.00 | 0.00 | 59 | 1012.5 |
| 20260504010452 | 11 | 249 | 0.0 | 0.0 | 0.00 | 0.00 | 0.00 | 57 | 1012.6 |
| 20260504005948 | 11 | 249 | 0.0 | 0.0 | 0.00 | 0.00 | 0.00 | 57 | 1012.4 |
| 20260504005445 | 11 | 249 | 0.0 | 0.0 | 0.00 | 0.00 | 0.00 | 55 | 1012.6 |
| 20260504004943 | 12 | 249 | 0.0 | 0.0 | 0.00 | 0.00 | 0.00 | 55 | 1012.4 |
| 20260504004440 | 12 | 249 | 0.0 | 1.6 | 0.00 | 0.00 | 0.00 | 52 | 1012.3 |
| 20260504003937 | 12 | 241 | 1.6 | 1.6 | 0.00 | 0.00 | 0.00 | 51 | 1012.4 |
| 20260504003433 | 12 | 251 | 0.0 | 1.6 | 0.00 | 0.00 | 0.00 | 52 | 1012.3 |
| 20260504002930 | 12 | 251 | 0.0 | 1.6 | 0.00 | 0.00 | 0.00 | 50 | 1012.4 |
| 20260504002427 | 13 | 250 | 0.0 | 1.6 | 0.00 | 0.00 | 0.00 | 51 | 1012.5 |
| 20260504001924 | 13 | 248 | 1.6 | 1.6 | 0.00 | 0.00 | 0.00 | 49 | 1012.5 |
| 20260504001422 | 13 | 249 | 0.0 | 1.6 | 0.00 | 0.00 | 0.00 | 50 | 1012.4 |
| 20260504000918 | 13 | 238 | 3.2 | 3.2 | 0.00 | 0.00 | 0.00 | 48 | 1012.2 |
| 20260504000416 | 13 | 251 | 0.0 | 0.0 | 0.00 | 0.00 | 0.00 | 48 | 1012.3 |
| 20260503235912 | 13 | 246 | 1.6 | 1.6 | 0.00 | 0.00 | 0.00 | 47 | 1012.4 |
| 20260503235410 | 13 | 248 | 1.6 | 1.6 | 0.00 | 0.00 | 0.00 | 47 | 1012.3 |
| 20260503234908 | 13 | 262 | 1.6 | 3.2 | 0.00 | 0.00 | 0.00 | 45 | 1012.6 |
| 20260503234405 | 13 | 256 | 0.0 | 1.6 | 0.00 | 0.00 | 0.00 | 47 | 1012.4 |
| 20260503233903 | 13 | 265 | 3.2 | 4.8 | 0.00 | 0.00 | 0.00 | 45 | 1012.4 |
| 20260503233359 | 13 | 252 | 0.0 | 1.6 | 0.00 | 0.00 | 0.00 | 45 | 1012.3 |
| 20260503232855 | 14 | 256 | 0.0 | 0.0 | 0.00 | 0.00 | 0.00 | 46 | 1012.2 |
| 20260503232353 | 14 | 257 | 1.6 | 3.2 | 0.00 | 0.00 | 0.00 | 45 | 1012.3 |
| 20260503231850 | 14 | 269 | 3.2 | 4.8 | 0.00 | 0.00 | 0.00 | 45 | 1012.3 |
| 20260503231347 | 14 | 254 | 3.2 | 3.2 | 0.00 | 0.00 | 0.00 | 45 | 1012.3 |
| 20260503230843 | 14 | 252 | 3.2 | 3.2 | 0.00 | 0.00 | 0.00 | 44 | 1012.2 |
| 20260503230340 | 14 | 238 | 3.2 | 3.2 | 0.00 | 0.00 | 0.00 | 44 | 1012.2 |
| 20260503225838 | 15 | 288 | 3.2 | 3.2 | 0.00 | 0.00 | 0.00 | 44 | 1012.2 |
| 20260503225334 | 15 | 236 | 8.0 | 14.5 | 0.00 | 0.00 | 0.00 | 43 | 1012.4 |
| 20260503224830 | 15 | 253 | 4.8 | 4.8 | 0.00 | 0.00 | 0.00 | 42 | 1012.2 |
| 20260503224327 | 15 | 240 | 8.0 | 11.3 | 0.00 | 0.00 | 0.00 | 41 | 1012.2 |
| 20260503223825 | 15 | 250 | 8.0 | 12.9 | 0.00 | 0.00 | 0.00 | 43 | 1012.4 |
| 20260503223323 | 15 | 251 | 4.8 | 4.8 | 0.00 | 0.00 | 0.00 | 42 | 1012.3 |
| 20260503222818 | 15 | 261 | 3.2 | 4.8 | 0.00 | 0.00 | 0.00 | 42 | 1012.3 |
| 20260503222317 | 15 | 262 | 3.2 | 3.2 | 0.00 | 0.00 | 0.00 | 42 | 1012.5 |
| 20260503221815 | 15 | 206 | 6.4 | 9.7 | 0.00 | 0.00 | 0.00 | 39 | 1012.5 |
| 20260503221313 | 15 | 249 | 1.6 | 3.2 | 0.00 | 0.00 | 0.00 | 42 | 1012.5 |
| 20260503220809 | 15 | 254 | 0.0 | 0.0 | 0.00 | 0.00 | 0.00 | 40 | 1012.5 |
| 20260503220306 | 15 | 190 | 6.4 | 9.7 | 0.00 | 0.00 | 0.00 | 39 | 1012.5 |
| 20260503215802 | 15 | 273 | 4.8 | 8.0 | 0.00 | 0.00 | 0.00 | 40 | 1012.5 |
| 20260503215259 | 16 | 301 | 4.8 | 8.0 | 0.00 | 0.00 | 0.00 | 39 | 1012.5 |
| 20260503214757 | 16 | 246 | 1.6 | 1.6 | 0.00 | 0.00 | 0.00 | 39 | 1012.1 |
| 20260503214254 | 15 | 228 | 3.2 | 3.2 | 0.00 | 0.00 | 0.00 | 40 | 1012.3 |
| 20260503213752 | 15 | 284 | 1.6 | 1.6 | 0.00 | 0.00 | 0.00 | 40 | 1012.3 |
| 20260503213249 | 16 | 263 | 1.6 | 4.8 | 0.00 | 0.00 | 0.00 | 41 | 1012.2 |
| 20260503212746 | 16 | 260 | 3.2 | 4.8 | 0.00 | 0.00 | 0.00 | 40 | 1012.3 |
| 20260503212243 | 16 | 267 | 3.2 | 4.8 | 0.00 | 0.00 | 0.00 | 39 | 1012.1 |
| 20260503211741 | 16 | 297 | 6.4 | 8.0 | 0.00 | 0.00 | 0.00 | 39 | 1012.1 |
| 20260503211237 | 17 | 217 | 3.2 | 3.2 | 0.00 | 0.00 | 0.00 | 38 | 1012.2 |
| 20260503210732 | 16 | 284 | 4.8 | 4.8 | 0.00 | 0.00 | 0.00 | 39 | 1012.2 |
| 20260503210230 | 16 | 258 | 0.0 | 1.6 | 0.00 | 0.00 | 0.00 | 39 | 1012.3 |
| 20260503205725 | 17 | 257 | 3.2 | 3.2 | 0.00 | 0.00 | 0.00 | 37 | 1012.5 |
| 20260503205222 | 16 | 240 | 3.2 | 8.0 | 0.00 | 0.00 | 0.00 | 38 | 1012.4 |
| 20260503204718 | 16 | 319 | 6.4 | 12.9 | 0.00 | 0.00 | 0.00 | 39 | 1012.7 |
| 20260503204216 | 16 | 327 | 3.2 | 8.0 | 0.00 | 0.00 | 0.00 | 42 | 1012.4 |
| 20260503203713 | 15 | 266 | 1.6 | 3.2 | 0.00 | 0.00 | 0.00 | 42 | 1012.5 |
| 20260503203211 | 15 | 257 | 6.4 | 9.7 | 0.00 | 0.00 | 0.00 | 40 | 1012.4 |
| 20260503202708 | 15 | 274 | 3.2 | 3.2 | 0.00 | 0.00 | 0.00 | 43 | 1012.9 |
| 20260503202206 | 15 | 251 | 4.8 | 4.8 | 0.00 | 0.00 | 0.00 | 41 | 1012.7 |
| 20260503201703 | 15 | 253 | 1.6 | 1.6 | 0.00 | 0.00 | 0.00 | 40 | 1012.9 |
| 20260503201200 | 16 | 263 | 4.8 | 4.8 | 0.00 | 0.00 | 0.00 | 40 | 1013.0 |
| 20260503200656 | 16 | 265 | 3.2 | 3.2 | 0.00 | 0.00 | 0.00 | 39 | 1013.1 |
| 20260503200153 | 16 | 209 | 4.8 | 4.8 | 0.00 | 0.00 | 0.00 | 41 | 1013.2 |
| 20260503195650 | 17 | 246 | 1.6 | 3.2 | 0.00 | 0.00 | 0.00 | 39 | 1013.2 |
| 20260503195147 | 16 | 279 | 3.2 | 3.2 | 0.00 | 0.00 | 0.00 | 43 | 1013.1 |
| 20260503194644 | 15 | 300 | 4.8 | 4.8 | 0.00 | 0.00 | 0.00 | 40 | 1013.4 |
| 20260503194139 | 16 | 283 | 6.4 | 8.0 | 0.00 | 0.00 | 0.00 | 41 | 1013.7 |
| 20260503193637 | 15 | 252 | 1.6 | 1.6 | 0.00 | 0.00 | 0.00 | 46 | 1013.5 |
| 20260503193132 | 15 | 300 | 8.0 | 12.9 | 0.00 | 0.00 | 0.00 | 42 | 1013.6 |
| 20260503192628 | 16 | 271 | 3.2 | 4.8 | 0.00 | 0.00 | 0.00 | 42 | 1013.9 |
| 20260503192124 | 16 | 213 | 8.0 | 12.9 | 0.00 | 0.00 | 0.00 | 41 | 1013.8 |
| 20260503191621 | 15 | 277 | 3.2 | 4.8 | 0.00 | 0.00 | 0.00 | 43 | 1013.9 |
| 20260503191118 | 15 | 100 | 3.2 | 4.8 | 0.00 | 0.00 | 0.00 | 42 | 1014.0 |
| 20260503190615 | 16 | 52 | 1.6 | 4.8 | 0.00 | 0.00 | 0.00 | 43 | 1014.1 |
| 20260503190112 | 16 | 296 | 9.7 | 11.3 | 0.00 | 0.00 | 0.00 | 43 | 1013.9 |
| 20260503185608 | 16 | 273 | 6.4 | 8.0 | 0.00 | 0.00 | 0.00 | 43 | 1014.0 |
| 20260503185108 | 16 | 282 | 4.8 | 9.7 | 0.00 | 0.00 | 0.00 | 43 | 1014.1 |
| 20260503184604 | 16 | 254 | 4.8 | 4.8 | 0.00 | 0.00 | 0.00 | 44 | 1014.2 |
| 20260503184100 | 16 | 255 | 3.2 | 3.2 | 0.00 | 0.00 | 0.00 | 45 | 1014.2 |
| 20260503183557 | 16 | 257 | 3.2 | 4.8 | 0.00 | 0.00 | 0.00 | 42 | 1014.3 |
| 20260503183054 | 16 | 323 | 4.8 | 9.7 | 0.00 | 0.00 | 0.00 | 41 | 1014.4 |
| 20260503182553 | 15 | 238 | 3.2 | 4.8 | 0.00 | 0.00 | 0.00 | 42 | 1014.4 |
| 20260503182050 | 15 | 279 | 4.8 | 4.8 | 0.00 | 0.00 | 0.00 | 48 | 1014.3 |
| 20260503181547 | 15 | 287 | 1.6 | 4.8 | 0.00 | 0.00 | 0.00 | 45 | 1014.5 |
| 20260503181043 | 16 | 254 | 4.8 | 9.7 | 0.00 | 0.00 | 0.00 | 46 | 1014.6 |
| 20260503180541 | 16 | 259 | 3.2 | 4.8 | 0.00 | 0.00 | 0.00 | 47 | 1014.4 |
| 20260503180038 | 16 | 113 | 3.2 | 4.8 | 0.00 | 0.00 | 0.00 | 46 | 1014.7 |
| 20260503175535 | 15 | 270 | 3.2 | 3.2 | 0.00 | 0.00 | 0.00 | 45 | 1014.6 |
| 20260503175033 | 16 | 276 | 4.8 | 8.0 | 0.00 | 0.00 | 0.00 | 43 | 1014.6 |
| 20260503174530 | 16 | 286 | 4.8 | 4.8 | 0.00 | 0.00 | 0.00 | 46 | 1014.8 |
| 20260503174026 | 15 | 249 | 6.4 | 8.0 | 0.00 | 0.00 | 0.00 | 40 | 1015.0 |
| 20260503173521 | 15 | 227 | 4.8 | 9.7 | 0.00 | 0.00 | 0.00 | 44 | 1014.8 |
| 20260503173017 | 15 | 100 | 4.8 | 8.0 | 0.00 | 0.00 | 0.00 | 45 | 1015.0 |
| 20260503172515 | 15 | 275 | 8.0 | 9.7 | 0.00 | 0.00 | 0.00 | 43 | 1014.9 |
| 20260503172012 | 15 | 264 | 4.8 | 4.8 | 0.00 | 0.00 | 0.00 | 47 | 1014.7 |
| 20260503171508 | 15 | 227 | 3.2 | 8.0 | 0.00 | 0.00 | 0.00 | 45 | 1015.1 |
| 20260503171006 | 15 | 266 | 3.2 | 4.8 | 0.00 | 0.00 | 0.00 | 44 | 1015.1 |
| 20260503170502 | 15 | 262 | 1.6 | 3.2 | 0.00 | 0.00 | 0.00 | 46 | 1015.1 |
| 20260503150855 | 12 | 259 | 1.6 | 1.6 | 0.00 | 0.00 | 0.00 | 48 | 1016.0 |